OSCAR 7 (AO-7) 1 07530U 74089B 26173.50999495 -.00000042 00000+0 26889-4 0 9995 2 07530 101.9899 186.8122 0012626 120.2640 33.9567 12.53698175361183 PHASE 3B (AO-10) 1 14129U 83058B 26172.25409077 .00000065 00000+0 00000+0 0 9992 2 14129 25.9155 218.8909 6009417 116.7875 315.5999 2.05871098295574 UOSAT 2 (UO-11) 1 14781U 84021B 26173.65809851 .00001018 00000+0 10915-3 0 9995 2 14781 97.8059 139.1716 0008115 155.4224 204.7383 14.90794156257947 LUSAT (LO-19) 1 20442U 90005G 26173.34484693 .00000069 00000+0 41171-4 0 9998 2 20442 98.8847 195.2926 0011416 185.6168 174.4890 14.34124429903133 EYESAT A (AO-27) 1 22825U 93061C 26173.45393392 .00000057 00000+0 38710-4 0 9999 2 22825 98.6878 240.8657 0009549 86.2752 273.9523 14.30943433707757 ITAMSAT (IO-26) 1 22826U 93061D 26173.43177511 .00000058 00000+0 38812-4 0 9995 2 22826 98.6825 240.7615 0009995 71.4845 288.7423 14.31370490708063 RADIO ROSTO (RS15) 1 23439U 94085A 26173.61470456 -.00000044 00000+0 -44780-4 0 9995 2 23439 64.8186 294.4383 0156121 2.8733 357.3053 11.27583462296516 JAS-2 (FO-29) 1 24278U 96046B 26173.48650619 -.00000020 00000+0 12357-4 0 9990 2 24278 98.5236 21.6325 0350929 82.7220 281.3662 13.53274621473888 TECHSAT 1B (GO-32) 1 25397U 98043D 26173.68382816 .00000037 00000+0 36155-4 0 9994 2 25397 99.0069 166.5812 0001325 152.1038 208.0212 14.24429238452118 ISS (ZARYA) 1 25544U 98067A 26173.73662978 .00008151 00000+0 15395-3 0 9997 2 25544 51.6325 272.6245 0004455 218.9710 141.0958 15.49373286572615 PCSAT (NO-44) 1 26931U 01043C 26173.60725152 .00000029 00000+0 41662-4 0 9999 2 26931 67.0498 230.2533 0006057 264.8434 95.1977 14.31957590291222 SAUDISAT 1C (SO-50) 1 27607U 02058C 26173.21270606 .00000697 00000+0 99777-4 0 9994 2 27607 64.5516 113.4366 0075144 261.5322 97.7262 14.83055677265201 CUTE-1 (CO-55) 1 27844U 03031E 26173.72726103 .00000201 00000+0 10595-3 0 9994 2 27844 98.6736 182.2165 0009866 162.2410 197.9116 14.24338450192466 CUBESAT XI-IV (CO-57) 1 27848U 03031J 26173.43736598 .00000176 00000+0 96419-4 0 9996 2 27848 98.6767 181.6388 0009388 181.3421 178.7734 14.23623160192127 MOZHAETS 4 (RS22) 1 27939U 03042A 26173.85795519 .00001035 00000+0 16757-3 0 9994 2 27939 98.3477 358.3770 0009960 249.2406 222.3722 14.73476485216383 CUBESAT XI-V 1 28895U 05043F 26173.70240492 .00000991 00000+0 16368-3 0 9996 2 28895 98.2990 329.4398 0014027 182.9407 177.1719 14.72643296102565 CUTE-1.7+APD II (CO-65) 1 32785U 08021C 26173.81711056 .00004099 00000+0 25978-3 0 9999 2 32785 97.8280 155.3526 0009270 21.9068 338.2554 15.09498177986040 SEEDS II (CO-66) 1 32791U 08021J 26173.42331423 .00013901 00000+0 43974-3 0 9997 2 32791 97.7527 171.5713 0000370 315.0344 45.0867 15.32901579988092 YUBILEINY (RS30) 1 32953U 08025A 26173.81240424 .00000007 00000+0 -19660-4 0 9994 2 32953 82.5048 351.9401 0018657 300.9406 58.9840 12.43179500820391 KKS-1 (KISEKI) 1 33499U 09002H 26173.72133821 .00000892 00000+0 11626-3 0 9992 2 33499 98.1187 96.2512 0006381 274.0591 85.9893 14.83135192937014 SWISSCUBE 1 35932U 09051B 26173.29995435 .00000690 00000+0 14600-3 0 9990 2 35932 98.4032 81.2773 0006322 185.7057 174.4073 14.62489443889909 BEESAT-1 1 35933U 09051C 26173.31205070 .00000574 00000+0 12495-3 0 9994 2 35933 98.3960 80.9143 0004539 198.1423 161.9616 14.61727124889936 ITUPSAT1 1 35935U 09051E 26173.30742868 .00000516 00000+0 11648-3 0 9991 2 35935 98.4044 80.0961 0006492 215.3057 144.7713 14.60446745889489 XIWANG-1 (HOPE-1) 1 36122U 09072B 26173.79181853 -.00000332 00000+0 -75190-3 0 9997 2 36122 100.4028 127.5345 0006983 217.6573 142.4051 13.16437735793742 O/OREOS (USA 219) 1 37224U 10062C 26173.68762769 .00001508 00000+0 14800-3 0 9996 2 37224 71.9701 67.8801 0012763 51.3298 308.9012 14.93762586117465 JUGNU 1 37839U 11058B 26173.45104062 .00000382 00000+0 60037-4 0 9998 2 37839 19.9606 276.4498 0018572 134.0418 299.2901 14.13777929759774 SRMSAT 1 37841U 11058D 26172.95148441 .00000351 00000+0 46373-4 0 9997 2 37841 19.9733 30.6303 0011714 256.2995 137.7067 14.11576407758494 STRAND-1 1 39090U 13009E 26173.48650387 .00000193 00000+0 79259-4 0 9992 2 39090 98.3925 353.5904 0008012 207.9512 152.1246 14.37165718697821 ZACUBE-1 (TSHEPISOSAT) 1 39417U 13066B 26173.33975722 .00002077 00000+0 16390-3 0 9994 2 39417 97.8063 135.7033 0041482 229.9888 129.7692 15.01210891681500 GOMX-1 1 39430U 13066Q 26173.83766495 .00001427 00000+0 21904-3 0 9994 2 39430 97.6484 13.9436 0129962 59.6466 301.7518 14.69476850670749 CUBEBUG-2 (LO-74) 1 39440U 13066AA 26173.42199251 .00003222 00000+0 29961-3 0 9996 2 39440 97.8906 122.4220 0057991 11.9910 348.2675 14.93801192677773 FUNCUBE-1 (AO-73) 1 39444U 13066AE 26173.42589928 .00004268 00000+0 26631-3 0 9996 2 39444 97.8272 144.9807 0036208 182.8900 177.2125 15.09537633680451 UWE-3 1 39446U 13066AG 26173.42913192 .00003661 00000+0 31600-3 0 9990 2 39446 97.8705 129.5379 0046984 303.4981 56.1755 14.97061756678364 UNISAT-6 1 40012U 14033C 26173.31030613 .00002162 00000+0 23554-3 0 9996 2 40012 97.7885 325.9320 0046013 52.8797 307.6611 14.88266927646923 DUCHIFAT-1 1 40021U 14033M 26172.68931042 .00086182 00000+0 85879-3 0 9993 2 40021 98.0446 232.4851 0002282 109.8910 250.2594 15.65399754656454 QB50P1 1 40025U 14033R 26173.48836471 .00005984 00000+0 29507-3 0 9993 2 40025 98.0967 185.0059 0008326 195.8641 164.2332 15.18326980653832 LILACSAT-2 1 40908U 15049K 26173.81883747 .00014505 00000+0 24595-3 0 9997 2 40908 97.4644 210.8748 0005962 219.1235 140.9587 15.51603659596625 FOX-1A (AO-85) 1 40967U 15058D 26173.71849476 .00001472 00000+0 14171-3 0 9990 2 40967 64.7742 261.7939 0130756 54.4548 306.8672 14.90988819114394 CAS-2T & KS-1Q 1 41847U 16066G 26173.85069890 .00001272 00000+0 18516-3 0 9992 2 41847 98.3820 249.5224 0342905 112.3536 251.4371 14.44710015505615 RADFXSAT (FOX-1B) 1 43017U 17073E 26173.56579702 .00005824 00000+0 25602-3 0 9999 2 43017 97.4701 40.6703 0148969 310.5186 48.3145 15.12782562466208 DIWATA-2B 1 43678U 18084H 26173.83829685 .00002136 00000+0 17463-3 0 9992 2 43678 98.1199 10.2927 0012867 152.1678 208.0235 15.00474712417061 ES'HAIL 2 1 43700U 18090A 26173.82103547 .00000147 00000+0 00000+0 0 9991 2 43700 0.0147 298.5974 0001997 189.9310 103.8271 1.00272503 27730 FOX-1CLIFF (AO-95) 1 43770U 18099N 26172.66553232 .00008295 00000+0 31754-3 0 9994 2 43770 97.4381 232.8956 0007502 340.7571 19.3384 15.26789061413901 ITASAT 1 43786U 18099AE 26173.09375829 .00005153 00000+0 24832-3 0 9992 2 43786 97.4028 224.5076 0011561 342.4517 17.6316 15.19106341413650 JY1SAT (JO-97) 1 43803U 18099AX 26173.44568534 .00013019 00000+0 40045-3 0 9992 2 43803 97.4130 236.2984 0004684 237.9316 122.1473 15.33791959414439 UWE-4 1 43880U 18111E 26173.52166677 .00027166 00000+0 54968-3 0 9990 2 43880 97.5841 102.1592 0004611 316.7180 43.3706 15.46410589411605 TIANYAN 01 1 44881U 19093C 26173.83362181 .00001081 00000+0 12792-3 0 9991 2 44881 97.7526 245.9281 0015084 70.3444 289.9398 14.86528590352257 RS-44 & BREEZE-KM R/B 1 44909U 19096E 26173.71242865 .00000026 00000+0 50721-4 0 9991 2 44909 82.5223 336.0326 0218361 131.2961 230.7169 12.79748918303052 SALSAT 1 46495U 20068K 26173.31277948 .00005705 00000+0 20010-3 0 9996 2 46495 97.8856 176.6896 0007816 286.6046 73.4334 15.29860164316141 XW-3 (CAS-9) 1 50466U 21131B 26173.81639551 .00000409 00000+0 13998-3 0 9991 2 50466 98.4977 266.1759 0005384 84.1044 276.0759 14.41361831235923 GREENCUBE (IO-117) 1 53109U 22080E 26173.32029992 -.00000003 00000+0 00000+0 0 9997 2 53109 70.1445 296.4598 0008935 288.3983 71.5705 6.42583197 92393 UMKA 1 (RS40S) 1 57172U 23091G 26173.81807955 .00004662 00000+0 21365-3 0 9996 2 57172 97.5048 232.4937 0014338 100.3140 259.9713 15.20872074164862 CUBESX-HSE 3 (RS42S) 1 57178U 23091N 26173.85904525 .00010513 00000+0 34917-3 0 9996 2 57178 97.5090 239.5180 0011820 77.2845 282.9717 15.31333543165293 MONITOR-3 (RS58S) 1 57180U 23091Q 26173.83059802 .00007999 00000+0 29545-3 0 9991 2 57180 97.5082 237.3180 0012968 83.4433 276.8282 15.27936610165152 MONITOR-4 (RS57S) 1 57182U 23091S 26173.80934082 .00008202 00000+0 30210-3 0 9991 2 57182 97.5076 237.2684 0012974 83.7335 276.5382 15.28021576165151 MONITOR-2 (RS39S) 1 57184U 23091U 26173.84641688 .00004006 00000+0 19462-3 0 9998 2 57184 97.5071 232.0929 0012799 94.0133 266.2564 15.18953592164810 SVYATOBOR 1 (RS60S) 1 57187U 23091X 26173.82728552 .00006517 00000+0 25068-3 0 9993 2 57187 97.5087 237.6756 0010723 77.5479 282.6959 15.26694913165171 VIZARD-METEO (RS38S) 1 57189U 23091Z 26173.81497102 .00013043 00000+0 37183-3 0 9991 2 57189 97.5090 243.4134 0007905 60.7099 299.4933 15.36175339165559 POLYTECH-UNIVERSE 3 (R*) 1 57191U 23091AB 26173.80699668 .00003681 00000+0 17780-3 0 9992 2 57191 97.5046 231.5579 0017062 108.9729 251.3356 15.19157536164807 UTMN 2 (RS27S) 1 57203U 23091AP 26173.80823007 .00010462 00000+0 33892-3 0 9999 2 57203 97.5086 241.1075 0008935 66.9167 293.3016 15.32166840165400 KUZGTU 1 (RS47S) 1 57217U 23091AV 26173.85517767 .00009416 00000+0 32648-3 0 9997 2 57217 97.5062 238.3931 0012151 80.6365 279.6249 15.29966775165244 SONATE-2 1 59112U 24043Q 26173.85123223 .00032866 00000+0 42101-3 0 9991 2 59112 97.5538 324.5963 0007279 176.8356 183.2948 15.59094291128775 MESAT1 1 60209U 24125G 26173.54658285 .00046646 00000+0 49841-3 0 9997 2 60209 97.2291 31.1529 0010103 184.2712 175.8463 15.63717946110409 OOV-CUBE (TUBSAT-30) 1 60240U 24128F 26173.57817917 .00001157 00000+0 10015-3 0 9996 2 60240 61.9926 206.7746 0043962 134.9443 225.5227 15.02789334106926 COLIBRI-S (RS67S) 1 61746U 24199M 26173.81561746 .00017530 00000+0 33759-3 0 9991 2 61746 97.2992 47.7211 0006361 250.9303 109.1259 15.47922194138287 HORS 3 (RS81S) 1 61753U 24199U 26173.81623863 .00030192 00000+0 44564-3 0 9993 2 61753 97.2972 49.7698 0003951 244.0660 116.0188 15.55309120138438 HORS 4 (RS82S) 1 61754U 24199V 26173.82379279 .00042435 00000+0 52182-3 0 9992 2 61754 97.2918 51.0157 0003730 225.6437 134.4514 15.60145328138528 SIT-2086 1 61764U 24199AF 26173.80131917 .00029205 00000+0 46160-3 0 9995 2 61764 97.2932 50.2113 0005255 223.8340 136.2497 15.53422884135305 HYPERVIEW 1G (RS66S) 1 61772U 24199AP 26173.77527187 .00129662 00000+0 78327-3 0 9996 2 61772 97.2865 53.7817 0005116 197.7492 162.3597 15.77238828135558 ALTAIR (RS65S) 1 61779U 24199AW 26173.84093849 .00008190 00000+0 22737-3 0 9990 2 61779 97.3028 43.1543 0010791 287.6710 72.3356 15.37103389137984 ASRTU-1 (AO-123) 1 61781U 24199AY 26173.83380856 .00005786 00000+0 16840-3 0 9995 2 61781 97.2999 42.4534 0011980 290.9998 68.9964 15.35742963134798 SAMSAT-IONOSPHERE (RS7*) 1 61784U 24199BB 26173.84049710 .00038513 00000+0 51235-3 0 9991 2 61784 97.2941 49.8618 0006180 247.2078 112.8525 15.58061687138442 RTU MIREA 1 (RS51S) 1 61785U 24199BC 26173.85219208 .00046246 00000+0 53674-3 0 9995 2 61785 97.2929 50.7352 0006012 238.5143 121.5528 15.61628409135357 TEVEL2-4 1 63213U 25052D 26172.68117075 .00014398 00000+0 42941-3 0 9999 2 63213 97.3895 69.0801 0004965 94.6694 265.5117 15.34745367 70801 TEVEL2-5 1 63214U 25052E 26173.41945353 .00013715 00000+0 41121-3 0 9991 2 63214 97.3894 69.7659 0004889 94.7236 265.4565 15.34589962 70912 TEVEL2-6 1 63215U 25052F 26173.23628066 .00013939 00000+0 41841-3 0 9998 2 63215 97.3899 69.5668 0004757 95.5111 264.6675 15.34550217 70881 TEVEL2-1 1 63217U 25052H 26172.67998997 .00013561 00000+0 41432-3 0 9997 2 63217 97.3870 68.6292 0004905 104.4145 255.7643 15.33994869 70786 TEVEL2-3 1 63218U 25052J 26173.19630016 .00013736 00000+0 41869-3 0 9999 2 63218 97.3873 69.1678 0004858 103.9663 256.2121 15.34065187 70869 TEVEL2-2 1 63219U 25052K 26173.26735470 .00013780 00000+0 42062-3 0 9993 2 63219 97.3874 69.2190 0004903 103.8133 256.3656 15.34020096 70878 TEVEL2-9 1 63237U 25052AD 26173.44730229 .00012471 00000+0 40513-3 0 9995 2 63237 97.3936 68.7627 0008184 116.4765 243.7317 15.32032450 70837 TEVEL2-7 1 63238U 25052AE 26173.22791571 .00011733 00000+0 38497-3 0 9997 2 63238 97.3939 68.4578 0008225 117.2661 242.9419 15.31728224 70792 TEVEL2-8 1 63239U 25052AF 26173.69351598 .00011938 00000+0 39166-3 0 9991 2 63239 97.3936 68.8989 0008249 116.5342 243.6747 15.31724980 70869 INNOSAT 16 (RS92S7) 1 64878U 25155C 26173.84002173 .00004509 00000+0 18059-3 0 9998 2 64878 97.4563 140.9496 0011201 156.4610 203.7143 15.25506710 81539 GEOSCAN 6 (RS92S6) 1 64879U 25155D 26173.80539449 .00007242 00000+0 24990-3 0 9994 2 64879 97.4556 142.3789 0009009 144.8057 215.3780 15.30238301 81622 GEOSCAN 1 (RS92S1) 1 64880U 25155E 26173.80564634 .00008789 00000+0 29712-3 0 9994 2 64880 97.4553 142.5320 0008957 144.6223 215.5614 15.30843580 81638 239ALFEROV (RS61S) 1 64881U 25155F 26173.83247686 .00010979 00000+0 34568-3 0 9992 2 64881 97.4553 143.1395 0008678 142.2917 217.8935 15.33067874 81674 GEOSCAN 2 (RS92S2) 1 64890U 25155Q 26173.79833575 .00008715 00000+0 29218-3 0 9996 2 64890 97.4552 142.6794 0008665 133.0504 227.1464 15.31114407 81647 GEOSCAN 5 (RS92S5) 1 64891U 25155R 26173.82033470 .00011095 00000+0 34596-3 0 9997 2 64891 97.4545 143.2669 0007463 145.7462 214.4263 15.33385333 81686 GEOSCAN 4 (RS92S4) 1 64892U 25155S 26173.80395826 .00012074 00000+0 37437-3 0 9997 2 64892 97.4548 143.3003 0007533 145.2712 214.9023 15.33541520 81685 GEOSCAN 3 (RS92S3) 1 64893U 25155T 26173.79741084 .00014218 00000+0 41318-3 0 9992 2 64893 97.4537 143.7397 0007492 143.9134 216.2616 15.35552038 81716 INNOSAT 3 (RS92S0) 1 64894U 25155U 26173.82139348 .00031748 00000+0 69194-3 0 9990 2 64894 97.4486 145.4532 0007269 137.9921 222.1886 15.44173310 81839 KNACKSAT-2 1 67683U 98067XZ 26173.53867741 .00038699 00000+0 46548-3 0 9994 2 67683 51.6293 267.5508 0008770 238.8673 121.1461 15.60406263 21114